Ketchikan, AK

8:37 AM AKDT on October 16, 2018 (GMT -0800)
Ketchikan International

Weather History for PAKT - September, 2018

Change the Weather History Date:

Monday, September 17, 2018

  Actual Average Record
Temperature  
Mean Temperature 48 °F -  
Max Temperature 60 °F 59 °F 75 °F (1957)
Min Temperature 37 °F 46 °F 37 °F (1992)
Degree Days  
Heating Degree Days 16    
Moisture  
Dew Point 38 °F    
Average Humidity 67    
Maximum Humidity 89    
Minimum Humidity 34    
Precipitation  
Precipitation 0.00 in - - ()
Sea Level Pressure  
Sea Level Pressure 30.11 in    
Wind  
Wind Speed 4 mph (SE)    
Max Wind Speed 14 mph    
Max Gust Speed -    
Visibility 10 miles    
Events      
Averages and records for this station are not official NWS values.
T = Trace of Precipitation, MM = Missing Value Source: NWS Daily Summary

Daily Weather History Graph

Daily Weather History Graph

Search for Another Location

Airport or City:

Astronomy

Sep. 17, 2018 Rise Set
Actual Time 6:23 AM AKDT 6:58 PM AKDT
Civil Twilight 5:46 AM AKDT 7:34 PM AKDT
Nautical Twilight 5:01 AM AKDT 8:18 PM AKDT
Astronomical Twilight 4:14 AM AKDT 9:06 PM AKDT
Moon 3:41 PM AKDT (9/17) 11:26 PM AKDT (9/17)
Length of Visible Light 13h 48m
Length of Day
12h 35m
First Quarter, 58% of the Moon is Illuminated
Sep 17
First Quarter
Sep 24
Full
Oct 2
Last Quarter
Oct 8
New
Oct 16
First Quarter

Hourly Weather History & Observations

Time (AKDT) Temp. Windchill Dew Point Humidity Pressure Visibility Wind Dir Wind Speed Gust Speed Precip Events Conditions
12:53 AM 45.0 °F - 37.9 °F 76% 30.04 in 10.0 mi Calm Calm - N/A   Overcast
1:53 AM 44.1 °F - 36.0 °F 73% 30.05 in 10.0 mi Calm Calm - N/A   Scattered Clouds
2:53 AM 39.9 °F - 35.1 °F 83% 30.06 in 10.0 mi Calm Calm - N/A   Scattered Clouds
3:53 AM 37.9 °F - 35.1 °F 89% 30.06 in 10.0 mi Calm Calm - N/A   Clear
4:53 AM 37.9 °F - 35.1 °F 89% 30.07 in 10.0 mi Calm Calm - N/A   Clear
5:53 AM 45.0 °F 42.6 °F 39.0 °F 80% 30.08 in 10.0 mi SE 4.6 mph - N/A   Clear
6:06 AM 45.0 °F 41.8 °F 39.0 °F 80% 30.08 in 10.0 mi SE 5.8 mph - N/A   Clear
6:53 AM 44.1 °F 40.8 °F 39.9 °F 85% 30.09 in 10.0 mi SE 5.8 mph - N/A   Clear
7:53 AM 46.4 °F 44.3 °F 42.8 °F 87% 30.10 in 10.0 mi SE 4.6 mph - N/A   Partly Cloudy
8:53 AM 51.8 °F - 44.6 °F 76% 30.10 in 10.0 mi ESE 6.9 mph - N/A   Clear
9:53 AM 55.4 °F - 44.6 °F 67% 30.12 in 10.0 mi SE 10.4 mph - N/A   Clear
10:53 AM 57.0 °F - 43.0 °F 59% 30.13 in 10.0 mi ESE 10.4 mph - N/A   Clear
11:53 AM 59.0 °F - 42.8 °F 55% 30.13 in 10.0 mi ESE 12.7 mph - N/A   Clear
12:53 PM 59.0 °F - 42.8 °F 55% 30.13 in 10.0 mi ESE 12.7 mph - N/A   Clear
1:53 PM 60.8 °F - 39.2 °F 45% 30.14 in 10.0 mi SE 12.7 mph - N/A   Clear
2:53 PM 60.8 °F - 32.0 °F 34% 30.14 in 10.0 mi SE 12.7 mph - N/A   Clear
3:53 PM 60.8 °F - 32.0 °F 34% 30.13 in 10.0 mi ESE 13.8 mph - N/A   Clear
4:53 PM 57.2 °F - 33.8 °F 41% 30.13 in 10.0 mi SE 8.1 mph - N/A   Clear
5:53 PM 55.4 °F - 33.8 °F 44% 30.13 in 10.0 mi ESE 9.2 mph - N/A   Clear
6:53 PM 51.8 °F - 35.6 °F 54% 30.14 in 10.0 mi South 4.6 mph - N/A   Clear
7:53 PM 48.9 °F - 37.9 °F 66% 30.15 in 10.0 mi SE 3.5 mph - N/A   Clear
8:53 PM 46.9 °F - 39.0 °F 74% 30.16 in 10.0 mi SE 5.8 mph - N/A   Clear
9:53 PM 46.9 °F - 39.9 °F 77% 30.17 in 10.0 mi SE 4.6 mph - N/A   Clear
10:53 PM 45.0 °F 43.5 °F 39.0 °F 80% 30.16 in 10.0 mi SE 3.5 mph - N/A   Clear
11:53 PM 42.1 °F - 37.0 °F 82% 30.16 in 10.0 mi Calm Calm - N/A   Clear